• In Russia
  • List of Countries
  • For 7 days
  • Water Temperature
  • Satellite Maps
  • Weather Map
  • Weather Widgets
  • user-avatar
    Login

    Hourly Weather Lezhe

    Today, 5 December, Monday

    Time Temperature Precipitation Wind Pressure Humidity
    00:00 +2°C° 0 mm 3 mps 745 mmHg 66%
    01:00 +2°C° 0 mm 3 mps 745 mmHg 64%
    02:00 +2°C° 0 mm 3 mps 745 mmHg 63%
    03:00 +2°C° 0 mm 3 mps 745 mmHg 63%
    04:00 +2°C° 0 mm 3 mps 745 mmHg 63%
    05:00 +2°C° 0 mm 3 mps 746 mmHg 62%
    06:00 +2°C° 0 mm 3 mps 746 mmHg 62%
    07:00 +2°C° 0 mm 3 mps 746 mmHg 60%
    08:00 +4°C° 0 mm 3 mps 746 mmHg 57%
    09:00 +7°C° 0 mm 3 mps 746 mmHg 53%
    10:00 +9°C° 0 mm 2 mps 746 mmHg 49%
    11:00 +10°C° 0 mm 2 mps 746 mmHg 49%
    12:00 +12°C° 0 mm 2 mps 746 mmHg 48%
    13:00 +12°C° 0 mm 1 mps 746 mmHg 53%
    14:00 +11°C° 0 mm 1 mps 746 mmHg 60%
    15:00 +9°C° 0 mm 1 mps 746 mmHg 67%
    16:00 +8°C° 0 mm 1 mps 746 mmHg 73%
    17:00 +7°C° 0 mm 1 mps 746 mmHg 75%
    18:00 +6°C° 0 mm 2 mps 746 mmHg 76%
    19:00 +5°C° 0 mm 2 mps 746 mmHg 77%
    20:00 +5°C° 0 mm 2 mps 746 mmHg 78%
    21:00 +5°C° 0 mm 2 mps 746 mmHg 79%
    22:00 +5°C° 0 mm 2 mps 746 mmHg 80%
    23:00 +5°C° 0 mm 2 mps 746 mmHg 80%

    Tomorrow, 6 December, Tuesday

    Time Temperature Precipitation Wind Pressure Humidity
    00:00 +6°C° 0 mm 2 mps 746 mmHg 81%
    01:00 +6°C° 0 mm 2 mps 746 mmHg 81%
    02:00 +6°C° 0 mm 2 mps 746 mmHg 83%
    03:00 +7°C° 0 mm 1 mps 745 mmHg 84%
    04:00 +6°C° 0 mm 1 mps 745 mmHg 86%
    05:00 +6°C° 0 mm 1 mps 745 mmHg 88%
    06:00 +6°C° 0 mm 1 mps 745 mmHg 89%
    07:00 +5°C° 0 mm 1 mps 745 mmHg 91%
    08:00 +8°C° 0 mm 1 mps 745 mmHg 83%
    09:00 +10°C° 0 mm 1 mps 745 mmHg 76%
    10:00 +12°C° 0 mm 1 mps 745 mmHg 68%
    11:00 +12°C° 0 mm 1 mps 745 mmHg 67%
    12:00 +13°C° 0 mm 1 mps 745 mmHg 66%
    13:00 +13°C° 0 mm 1 mps 744 mmHg 65%
    14:00 +11°C° 0 mm 1 mps 744 mmHg 72%
    15:00 +10°C° 0 mm 1 mps 744 mmHg 80%
    16:00 +8°C° 0 mm 1 mps 744 mmHg 88%
    17:00 +8°C° 0 mm 1 mps 745 mmHg 87%
    18:00 +7°C° 0 mm 1 mps 745 mmHg 86%
    19:00 +7°C° 0 mm 1 mps 745 mmHg 85%
    20:00 +7°C° 0 mm 1 mps 745 mmHg 84%
    21:00 +7°C° 0 mm 1 mps 745 mmHg 82%
    22:00 +7°C° 0 mm 1 mps 746 mmHg 80%
    23:00 +6°C° 0 mm 2 mps 746 mmHg 79%

    Day after tomorrow, 7 December, Wednesday

    Time Temperature Precipitation Wind Pressure Humidity
    00:00 +6°C° 0 mm 2 mps 746 mmHg 79%
    01:00 +6°C° 0 mm 2 mps 746 mmHg 78%
    02:00 +5°C° 0 mm 2 mps 746 mmHg 78%
    03:00 +5°C° 0 mm 2 mps 746 mmHg 79%
    04:00 +5°C° 0 mm 2 mps 746 mmHg 79%
    05:00 +4°C° 0 mm 3 mps 746 mmHg 79%
    06:00 +3°C° 0 mm 3 mps 747 mmHg 79%
    07:00 +3°C° 0 mm 3 mps 747 mmHg 79%
    08:00 +5°C° 0 mm 3 mps 747 mmHg 72%
    09:00 +8°C° 0 mm 3 mps 748 mmHg 65%
    10:00 +9°C° 0 mm 3 mps 748 mmHg 59%
    11:00 +10°C° 0 mm 3 mps 748 mmHg 57%
    12:00 +10°C° 0 mm 3 mps 748 mmHg 55%
    13:00 +11°C° 0 mm 3 mps 748 mmHg 53%
    14:00 +9°C° 0 mm 3 mps 748 mmHg 59%
    15:00 +8°C° 0 mm 3 mps 748 mmHg 65%
    16:00 +7°C° 0 mm 3 mps 748 mmHg 71%
    17:00 +5°C° 0 mm 4 mps 749 mmHg 73%
    18:00 +4°C° 0 mm 4 mps 749 mmHg 74%
    19:00 +3°C° 0 mm 4 mps 750 mmHg 76%
    20:00 +3°C° 0 mm 4 mps 750 mmHg 75%
    21:00 +3°C° 0 mm 3 mps 750 mmHg 74%
    22:00 +2°C° 0 mm 3 mps 751 mmHg 73%
    23:00 +2°C° 0 mm 3 mps 751 mmHg 71%

    8 December, Thursday

    Time Temperature Precipitation Wind Pressure Humidity
    00:00 +2°C° 0 mm 3 mps 751 mmHg 70%
    01:00 +2°C° 0 mm 3 mps 751 mmHg 68%
    02:00 +2°C° 0 mm 3 mps 751 mmHg 66%
    03:00 +2°C° 0 mm 3 mps 751 mmHg 64%
    04:00 +2°C° 0 mm 3 mps 750 mmHg 62%
    05:00 +2°C° 0 mm 3 mps 751 mmHg 60%
    06:00 +3°C° 0 mm 2 mps 751 mmHg 59%
    07:00 +3°C° 0 mm 2 mps 751 mmHg 57%
    08:00 +5°C° 0 mm 2 mps 751 mmHg 52%
    09:00 +7°C° 0 mm 2 mps 751 mmHg 47%
    10:00 +10°C° 0 mm 1 mps 751 mmHg 41%
    11:00 +11°C° 0 mm 1 mps 751 mmHg 39%
    12:00 +12°C° 0 mm 1 mps 750 mmHg 37%
    13:00 +12°C° 0 mm 0 mps 750 mmHg 35%
    14:00 +9°C° 0 mm 0 mps 750 mmHg 44%
    15:00 +8°C° 0 mm 1 mps 750 mmHg 53%
    16:00 +6°C° 0 mm 1 mps 749 mmHg 62%
    17:00 +5°C° 0 mm 1 mps 749 mmHg 61%
    18:00 +5°C° 0 mm 1 mps 750 mmHg 61%
    19:00 +5°C° 0 mm 1 mps 750 mmHg 60%
    20:00 +4°C° 0 mm 1 mps 750 mmHg 57%
    21:00 +4°C° 0 mm 1 mps 750 mmHg 55%
    22:00 +4°C° 0 mm 1 mps 750 mmHg 52%
    23:00 +4°C° 0 mm 1 mps 749 mmHg 52%

    9 December, Friday

    Time Temperature Precipitation Wind Pressure Humidity
    00:00 +4°C° 0 mm 1 mps 749 mmHg 53%
    01:00 +4°C° 0 mm 1 mps 749 mmHg 53%
    02:00 +4°C° 0 mm 1 mps 749 mmHg 53%
    03:00 +4°C° 0 mm 1 mps 748 mmHg 52%
    04:00 +4°C° 0 mm 1 mps 748 mmHg 52%
    05:00 +4°C° 0 mm 1 mps 748 mmHg 52%
    06:00 +4°C° 0 mm 1 mps 748 mmHg 52%
    07:00 +4°C° 0 mm 1 mps 748 mmHg 52%
    08:00 +7°C° 0 mm 1 mps 748 mmHg 47%
    09:00 +9°C° 0 mm 1 mps 748 mmHg 42%
    10:00 +11°C° 0 mm 0 mps 748 mmHg 36%
    11:00 +13°C° 0 mm 1 mps 748 mmHg 39%
    12:00 +13°C° 0 mm 1 mps 747 mmHg 41%
    13:00 +13°C° 0 mm 1 mps 747 mmHg 43%
    14:00 +11°C° 0 mm 1 mps 747 mmHg 54%
    15:00 +8°C° 0 mm 1 mps 747 mmHg 65%
    16:00 +6°C° 0 mm 1 mps 746 mmHg 76%
    17:00 +6°C° 0 mm 1 mps 747 mmHg 71%
    18:00 +6°C° 0 mm 1 mps 747 mmHg 67%
    19:00 +6°C° 0 mm 1 mps 747 mmHg 63%
    20:00 +5°C° 0 mm 2 mps 747 mmHg 58%
    21:00 +5°C° 0 mm 2 mps 747 mmHg 53%
    22:00 +5°C° 0 mm 2 mps 747 mmHg 48%
    23:00 +5°C° 0 mm 2 mps 747 mmHg 47%

    10 December, Saturday

    Time Temperature Precipitation Wind Pressure Humidity
    00:00 +5°C° 0 mm 2 mps 747 mmHg 46%
    01:00 +5°C° 0 mm 2 mps 746 mmHg 45%
    02:00 +5°C° 0 mm 2 mps 746 mmHg 47%
    03:00 +5°C° 0 mm 2 mps 746 mmHg 48%
    04:00 +5°C° 0 mm 2 mps 745 mmHg 50%
    05:00 +5°C° 0 mm 2 mps 745 mmHg 55%
    06:00 +5°C° 0 mm 2 mps 746 mmHg 60%
    07:00 +5°C° 0 mm 2 mps 746 mmHg 64%
    08:00 +8°C° 0 mm 2 mps 746 mmHg 61%
    09:00 +10°C° 0 mm 2 mps 746 mmHg 57%
    10:00 +13°C° 0 mm 2 mps 746 mmHg 54%
    11:00 +14°C° 0 mm 1 mps 746 mmHg 53%
    12:00 +15°C° 0 mm 1 mps 745 mmHg 53%
    13:00 +16°C° 0 mm 1 mps 745 mmHg 52%
    14:00 +14°C° 0 mm 1 mps 745 mmHg 61%
    15:00 +11°C° 0 mm 1 mps 744 mmHg 70%
    16:00 +9°C° 0 mm 1 mps 744 mmHg 79%
    17:00 +8°C° 0 mm 1 mps 744 mmHg 79%
    18:00 +8°C° 0 mm 1 mps 744 mmHg 80%
    19:00 +7°C° 0 mm 1 mps 744 mmHg 81%
    20:00 +6°C° 0 mm 0 mps 744 mmHg 81%
    21:00 +6°C° 0 mm 0 mps 744 mmHg 81%
    22:00 +6°C° 0 mm 0 mps 744 mmHg 81%
    23:00 +6°C° 0 mm 0 mps 744 mmHg 80%
    Show more